[[{"header":{"parameterUnit":"m.s-1","parameterCategory":1,"la1":30.2991,"la2":30.254,"lo1":-89.0895,"lo2":-89.0444,"dy":0.0017,"dx":0.0017,"nx":28,"ny":28,"refTime":"2025-08-29T21:00:00:Z","depth":0,"parameterNumber":2,"parameterNumberName":"U-component_of_WINDS"},"data":[0,0,0,0,0,0,0,0,0,0,0,0,0,0,0,0,0,0,0,0,0,0,0,0,0,0,0,0,0,0,0,0,0,0,0,0,0,0,0,0,0,0,0,0,0,0,0,0,0,0,0,0,0,0,0,0,0,0,-2.4292,-2.4293,0,-2.4428,-2.443,-2.4431,-2.4393,-2.439,-2.4387,-2.4385,-2.4527,-2.4533,-2.454,0,0,0,0,0,0,0,0,0,0,0,0,0,-2.4002,-2.4007,-2.4292,-2.4294,-2.4295,-2.4428,-2.443,-2.4432,-2.4393,-2.439,-2.4386,-2.4383,-2.4525,-2.4533,-2.454,0,0,0,0,0,0,0,0,0,0,0,0,0,-2.4132,-2.4009,-2.4291,-2.4292,-2.4293,-2.4428,-2.443,-2.4432,-2.4394,-2.439,-2.4386,-2.4382,-2.4522,-2.4532,-2.4541,-2.4684,0,0,-2.4571,-2.4575,0,0,0,0,0,0,0,0,-2.4125,-2.4143,-2.429,-2.4292,-2.4294,-2.4389,-2.438,-2.4517,-2.4395,-2.4356,-2.4384,-2.438,-2.4485,-2.4497,-2.4532,-2.4691,-2.4697,-2.4571,-2.4577,-2.4581,-2.4584,0,0,0,0,0,0,0,-2.4116,-2.4137,-2.4346,-2.4292,-2.4295,-2.4287,-2.43,-2.4406,-2.4442,-2.4359,-2.4356,-2.4373,-2.4485,-2.4523,-2.4535,-2.4699,-2.4571,-2.458,-2.4586,-2.4589,-2.4986,-2.499,0,0,0,0,0,0,-2.4105,-2.4129,-2.4342,-2.435,-2.4197,-2.4295,-2.4311,-2.4363,-2.4441,-2.4449,-2.4376,-2.4371,-2.4509,-2.4524,-2.454,-2.4715,-2.4581,-2.459,-2.4596,-2.4981,-2.4987,-2.4992,0,0,0,0,0,0,-2.4099,-2.4124,-2.4336,-2.4239,-2.4265,-2.4305,-2.4364,-2.4368,-2.4406,-2.4454,-2.4461,-2.4408,-2.4506,-2.4527,-2.4649,-2.472,-2.4595,-2.4603,-2.4976,-2.4983,-2.499,-2.5065,0,0,0,0,0,0,-2.409,-2.4122,-2.4176,-2.4241,-2.4271,-2.4442,-2.4368,-2.4373,-2.4422,-2.4416,-2.4486,-2.4493,-2.4504,-2.4635,-2.4659,-2.473,-2.4611,-2.4969,-2.4979,-2.4987,-2.5057,-2.5074,-2.5089,0,0,0,0,0,-2.408,-2.4192,-2.4179,-2.4205,-2.4339,-2.4446,-2.4464,-2.4473,-2.4428,-2.4483,-2.4515,-2.4491,-2.4708,-2.4648,-2.4674,-2.475,-2.4965,-2.4976,-2.4987,-2.5049,-2.5071,-2.5089,0,0,0,0,0,0,-2.4134,-2.42,-2.4186,-2.4322,-2.4379,-2.4439,-2.4509,-2.4495,-2.4566,-2.4558,-2.4567,-2.4583,-2.471,-2.4742,-2.4674,-2.4894,-2.483,-2.4847,-2.4869,-2.4889,-2.4905,-2.4896,-2.4619,0,0,0,0,0,-2.4162,-2.4243,-2.4296,-2.441,-2.444,-2.447,-2.4517,-2.4519,-2.4579,-2.4603,-2.4643,-2.4703,-2.4785,-2.4838,-2.4916,-2.5061,-2.5077,-2.5126,-2.5142,-2.5155,-2.517,-2.5252,-2.5275,-2.5027,-2.5027,-2.5027,0,0,-2.422,-2.4266,-2.4316,-2.4423,-2.4467,-2.4552,-2.449,-2.4582,-2.4646,-2.4617,-2.4736,-2.4768,-2.4836,-2.4971,-2.5032,-2.5001,-2.5242,-2.5169,-2.5179,-2.5187,-2.5265,-2.5289,-2.5309,-2.5035,-2.5033,-2.5032,0,0,-2.437,-2.4412,-2.4513,-2.4559,-2.4627,-2.4646,-2.4671,-2.4734,-2.4754,-2.4874,-2.4855,-2.4931,-2.5071,-2.5121,-2.5164,-2.5335,-2.5318,-2.536,-2.5445,-2.5525,-2.5545,-2.5562,-2.5626,-2.5648,-2.5374,-2.5374,-2.5375,0,-2.4434,-2.456,-2.4567,-2.4662,-2.471,-2.4687,-2.4791,-2.4836,-2.4926,-2.4961,-2.4924,-2.5101,-2.5145,-2.5293,-2.5335,-2.537,-2.54,-2.5353,-2.5541,-2.5558,-2.5575,-2.5636,-2.5659,-2.5379,-2.5379,-2.5378,-2.5378,0,-2.4637,-2.4725,-2.4799,-2.4887,-2.4944,-2.5042,-2.5065,-2.5122,-2.512,-2.5144,-2.5267,-2.5319,-2.5408,-2.5443,-2.5441,-2.5592,-2.5571,-2.5538,-2.5474,-2.5603,-2.5661,-2.5684,-2.5386,-2.5385,-2.5383,-2.5382,0,0,-2.4825,-2.4916,-2.4944,-2.4984,-2.5058,-2.5128,-2.5226,-2.5313,-2.5363,-2.5426,-2.5511,-2.563,-2.5601,-2.565,-2.5655,-2.5724,-2.586,-2.5683,-2.5685,-2.5717,-2.6032,-2.6058,-2.6085,-2.5848,-2.5852,-2.5856,-2.6027,0,-2.4983,-2.5156,-2.5166,-2.5324,-2.5407,-2.5387,-2.5474,-2.553,-2.5555,-2.563,-2.5658,-2.5744,-2.5697,-2.5728,-2.5796,-2.5829,-2.5924,-2.5816,-2.5929,-2.5933,-2.5915,-2.6115,-2.6142,-2.6301,-2.605,-2.6053,-2.6056,0,-2.5191,-2.5261,-2.5427,-2.5492,-2.5527,-2.5604,-2.5686,-2.5758,-2.5821,-2.5835,-2.5892,-2.5886,-2.599,-2.5921,-2.6065,-2.5992,-2.6039,-2.6062,-2.6069,-2.6081,-2.6004,-2.6135,-2.6352,-2.6377,-2.6091,-2.6088,-2.6086,0,-2.5315,-2.5451,-2.5568,-2.5603,-2.5681,-2.5736,-2.5771,-2.5831,-2.5883,-2.5955,-2.5989,-2.6072,-2.6118,-2.6183,-2.6201,-2.6149,-2.6346,-2.6278,-2.6363,-2.6363,-2.6407,-2.6404,-2.6637,-2.6433,-2.6433,-2.6432,-2.6432,0,-2.5492,-2.5595,-2.5625,-2.5698,-2.5814,-2.5824,-2.5939,-2.5971,-2.6024,-2.6104,-2.6092,-2.6167,-2.6186,-2.6265,-2.628,-2.6399,-2.6419,-2.6435,-2.6438,-2.6438,-2.6436,-2.647,-2.646,-2.6439,-2.6437,-2.6436,-2.6435,0,-2.565,-2.5674,-2.5802,-2.5865,-2.5884,-2.5967,-2.6022,-2.6093,-2.6116,-2.6218,-2.6242,-2.6281,-2.6374,-2.6398,-2.6509,-2.652,-2.6661,-2.6652,-2.6639,-2.664,-2.6724,-2.6717,-2.6989,-2.7026,-2.6795,-2.6797,-2.6799,0,-2.5763,-2.5842,-2.5914,-2.5967,-2.6004,-2.6088,-2.6142,-2.6156,-2.6213,-2.6293,-2.6355,-2.6446,-2.6521,-2.6671,-2.671,-2.6796,-2.6791,-2.688,-2.6804,-2.6802,-2.6796,-2.6792,-2.6801,-2.6895,-2.6898,-2.69,-2.6901,0,-2.5961,-2.5969,-2.6047,-2.6129,-2.6194,-2.6259,-2.6322,-2.6366,-2.6389,-2.6454,-2.6549,-2.6607,-2.6721,-2.6813,-2.69,-2.6938,-2.6926,-2.6925,-2.695,-2.6951,-2.6942,-2.6951,-2.6682,-2.6919,-2.6917,-2.6916,-2.6915,-2.6914,-2.6102,-2.6172,-2.6235,-2.6322,-2.6371,-2.643,-2.6501,-2.6534,-2.6613,-2.6707,-2.6711,-2.6815,-2.6879,-2.6995,-2.7038,-2.7121,-2.7094,-2.7129,-2.7139,-2.7148,-2.7157,-2.6926,-2.7136,-2.7136,-2.7136,-2.7135,-2.7135,0,-2.6302,-2.6341,-2.6421,-2.651,-2.6579,-2.6559,-2.6629,-2.6689,-2.678,-2.6841,-2.6915,-2.7026,-2.7116,-2.7162,-2.7252,-2.731,-2.7306,-2.7333,-2.733,-2.734,-2.7174,-2.7145,-2.7334,-2.7334,-2.7334,-2.7334,-2.7334,-2.7334,-2.6414,-2.6533,-2.6549,-2.6693,-2.6732,-2.6834,-2.6876,-2.6932,-2.698,-2.7105,-2.7179,-2.7208,-2.7264,-2.7358,-2.7441,-2.7452,-2.7487,-2.7518,-2.7527,-2.7371,-2.7351,-2.7332,-2.7305,-2.7525,-2.7525,-2.7686,-2.7688,-2.7689]},{"header":{"parameterUnit":"m.s-1","parameterCategory":1,"la1":30.2991,"la2":30.254,"lo1":-89.0895,"lo2":-89.0444,"dy":0.0017,"dx":0.0017,"nx":28,"ny":28,"refTime":"2025-08-29T21:00:00:Z","depth":0,"parameterNumber":3,"parameterNumberName":"V-component_of_WINDS"},"data":[0,0,0,0,0,0,0,0,0,0,0,0,0,0,0,0,0,0,0,0,0,0,0,0,0,0,0,0,0,0,0,0,0,0,0,0,0,0,0,0,0,0,0,0,0,0,0,0,0,0,0,0,0,0,0,0,0,0,-2.0366,-2.0365,0,-2.0319,-2.0318,-2.0318,-2.0215,-2.0213,-2.0211,-2.0209,-2.0167,-2.0167,-2.0168,0,0,0,0,0,0,0,0,0,0,0,0,0,-2.0371,-2.0371,-2.0366,-2.0365,-2.0364,-2.0319,-2.0318,-2.0318,-2.0216,-2.0213,-2.0211,-2.0208,-2.0166,-2.0167,-2.0168,0,0,0,0,0,0,0,0,0,0,0,0,0,-2.0351,-2.0371,-2.0366,-2.0308,-2.0302,-2.0319,-2.0318,-2.0318,-2.0216,-2.0213,-2.021,-2.0207,-2.0166,-2.0167,-2.0168,-2.0239,0,0,-2.0172,-2.0173,0,0,0,0,0,0,0,0,-2.0352,-2.0351,-2.0317,-2.0312,-2.0306,-2.027,-2.0304,-2.0292,-2.0217,-2.0249,-2.0209,-2.0206,-2.0204,-2.0202,-2.02,-2.0237,-2.0235,-2.0172,-2.0173,-2.0174,-2.0174,0,0,0,0,0,0,0,-2.0354,-2.0352,-2.0347,-2.0317,-2.031,-2.0286,-2.0279,-2.0301,-2.0245,-2.0246,-2.0239,-2.0234,-2.02,-2.0199,-2.0198,-2.0235,-2.0172,-2.0173,-2.0174,-2.0175,-2.0329,-2.0332,0,0,0,0,0,0,-2.0363,-2.0354,-2.0349,-2.0346,-2.0321,-2.0288,-2.0281,-2.0285,-2.0244,-2.0235,-2.0237,-2.023,-2.0199,-2.0197,-2.0196,-2.0278,-2.0174,-2.0175,-2.0175,-2.0325,-2.0329,-2.0333,0,0,0,0,0,0,-2.0363,-2.0363,-2.0351,-2.0348,-2.0344,-2.0291,-2.0296,-2.0285,-2.0284,-2.0237,-2.0227,-2.0246,-2.0196,-2.0195,-2.0229,-2.0275,-2.0175,-2.0176,-2.0321,-2.0327,-2.0331,-2.0441,0,0,0,0,0,0,-2.0364,-2.0364,-2.0389,-2.0349,-2.0345,-2.0383,-2.0299,-2.0287,-2.0286,-2.0276,-2.0243,-2.0235,-2.0193,-2.0228,-2.023,-2.0275,-2.0177,-2.0317,-2.0324,-2.033,-2.0433,-2.0449,-2.0462,0,0,0,0,0,-2.0364,-2.0423,-2.0391,-2.0391,-2.0375,-2.0386,-2.0384,-2.0334,-2.029,-2.0316,-2.0286,-2.0236,-2.0269,-2.0232,-2.0234,-2.028,-2.0314,-2.0322,-2.0329,-2.0426,-2.0446,-2.0462,0,0,0,0,0,0,-2.0472,-2.0417,-2.0381,-2.0428,-2.0412,-2.0369,-2.04,-2.0356,-2.0353,-2.0344,-2.0283,-2.0277,-2.032,-2.0303,-2.0263,-2.0346,-2.0283,-2.0292,-2.0356,-2.0375,-2.0389,-2.0394,-2.0178,0,0,0,0,0,-2.0501,-2.0513,-2.0464,-2.051,-2.0504,-2.0454,-2.0456,-2.0419,-2.0401,-2.0394,-2.0366,-2.0353,-2.0359,-2.0366,-2.0369,-2.0429,-2.0421,-2.0461,-2.0476,-2.0488,-2.0497,-2.0528,-2.0546,-2.0358,-2.0358,-2.0358,0,0,-2.0562,-2.0533,-2.0544,-2.0531,-2.0515,-2.053,-2.0449,-2.0468,-2.0479,-2.0398,-2.0428,-2.0408,-2.0388,-2.0436,-2.0455,-2.0423,-2.0547,-2.0498,-2.0508,-2.051,-2.0538,-2.0556,-2.0572,-2.0363,-2.0362,-2.0361,0,0,-2.068,-2.0658,-2.0695,-2.068,-2.0655,-2.0621,-2.063,-2.0592,-2.0575,-2.0604,-2.0544,-2.0556,-2.057,-2.0558,-2.0554,-2.0668,-2.0623,-2.0671,-2.0749,-2.0781,-2.0795,-2.0808,-2.0851,-2.0866,-2.0679,-2.0679,-2.0679,0,-2.0759,-2.0778,-2.072,-2.0743,-2.074,-2.0664,-2.0702,-2.069,-2.0669,-2.0669,-2.0632,-2.0647,-2.0629,-2.0673,-2.0701,-2.0699,-2.0709,-2.0675,-2.0798,-2.081,-2.0821,-2.0861,-2.0877,-2.0685,-2.0685,-2.0684,-2.0683,0,-2.0877,-2.0891,-2.0924,-2.0904,-2.0904,-2.0934,-2.0882,-2.089,-2.0852,-2.0822,-2.0854,-2.0828,-2.0826,-2.0833,-2.0797,-2.0873,-2.0854,-2.0808,-2.0744,-2.0846,-2.0883,-2.0897,-2.0694,-2.0692,-2.069,-2.0689,0,0,-2.1064,-2.101,-2.1023,-2.1014,-2.098,-2.0991,-2.1018,-2.1014,-2.1023,-2.101,-2.1033,-2.1045,-2.1002,-2.0998,-2.096,-2.0987,-2.1081,-2.0938,-2.0936,-2.0967,-2.1165,-2.1201,-2.122,-2.1049,-2.1052,-2.1054,-2.1167,0,-2.1177,-2.1219,-2.1167,-2.1222,-2.1235,-2.1163,-2.1186,-2.117,-2.1142,-2.1151,-2.1121,-2.1131,-2.1073,-2.107,-2.1094,-2.1064,-2.112,-2.1055,-2.1072,-2.1073,-2.1082,-2.1238,-2.1277,-2.1385,-2.1181,-2.1183,-2.1185,0,-2.1314,-2.1306,-2.1362,-2.1325,-2.1329,-2.1351,-2.1343,-2.1351,-2.1331,-2.1309,-2.1304,-2.1257,-2.1283,-2.1219,-2.1255,-2.1212,-2.1216,-2.1202,-2.1205,-2.1207,-2.1137,-2.1246,-2.1418,-2.1435,-2.1206,-2.1204,-2.1203,0,-2.1448,-2.1451,-2.1485,-2.1478,-2.1436,-2.1453,-2.1437,-2.1413,-2.1414,-2.1408,-2.1408,-2.1405,-2.1405,-2.1405,-2.1359,-2.1316,-2.1402,-2.1333,-2.1386,-2.1388,-2.141,-2.1409,-2.1587,-2.1408,-2.1408,-2.1408,-2.1407,0,-2.158,-2.1617,-2.1544,-2.1566,-2.1605,-2.1546,-2.1587,-2.1563,-2.1543,-2.1559,-2.1496,-2.1513,-2.1451,-2.1462,-2.1426,-2.1462,-2.1462,-2.1447,-2.1438,-2.1454,-2.1456,-2.1458,-2.145,-2.1412,-2.1411,-2.141,-2.1409,0,-2.1737,-2.1689,-2.1722,-2.1678,-2.1668,-2.1699,-2.1663,-2.1681,-2.1649,-2.1671,-2.1672,-2.1623,-2.1632,-2.1586,-2.1587,-2.1563,-2.1619,-2.1595,-2.1626,-2.1619,-2.1676,-2.1672,-2.1862,-2.1885,-2.169,-2.1692,-2.1694,0,-2.1826,-2.1853,-2.1811,-2.1817,-2.1803,-2.1813,-2.1813,-2.1755,-2.1759,-2.1737,-2.1759,-2.1763,-2.1763,-2.1782,-2.1747,-2.1748,-2.1726,-2.1792,-2.1726,-2.1742,-2.173,-2.173,-2.1733,-2.1808,-2.181,-2.1812,-2.1813,0,-2.199,-2.1965,-2.1966,-2.1961,-2.1962,-2.1955,-2.1944,-2.1952,-2.189,-2.1897,-2.1905,-2.1905,-2.1906,-2.1911,-2.1905,-2.1889,-2.1843,-2.1834,-2.1847,-2.1865,-2.1883,-2.1876,-2.1666,-2.1831,-2.1829,-2.1828,-2.1827,-2.1826,-2.2117,-2.2138,-2.2112,-2.2116,-2.2101,-2.2092,-2.2108,-2.2076,-2.2081,-2.2077,-2.2042,-2.2057,-2.2036,-2.2023,-2.2012,-2.2024,-2.1993,-2.2011,-2.2016,-2.2022,-2.2033,-2.1878,-2.2022,-2.2022,-2.2021,-2.2021,-2.202,0,-2.228,-2.2259,-2.2263,-2.2249,-2.2253,-2.2204,-2.2189,-2.2197,-2.221,-2.2194,-2.2194,-2.2204,-2.2209,-2.2174,-2.2174,-2.2191,-2.217,-2.2194,-2.2193,-2.2191,-2.206,-2.2049,-2.2211,-2.2211,-2.2211,-2.2211,-2.2211,-2.2211,-2.2365,-2.2398,-2.2369,-2.2395,-2.2374,-2.2387,-2.2383,-2.2374,-2.2361,-2.2374,-2.2377,-2.2353,-2.233,-2.2328,-2.2331,-2.232,-2.2325,-2.2357,-2.234,-2.2218,-2.22,-2.2182,-2.2173,-2.2357,-2.2358,-2.247,-2.2471,-2.2472]}]]